Wind_Speed
26 26 26 26 26 25 24 24 23 23 22 21 20 20 20 20 19 18 18 19 19 19 19 20 20 20 20 20 20 20 20 21 22 22 22 22 23 23 23 23 23 24 24
27 26 26 26 26 26 24 24 24 24 23 22 22 22 22 22 22 21 20 20 20 21 22 22 23 23 23 23 23 23 23 23 23 23 24 24 24 25 25 26 27 27 28
26 26 26 27 26 26 25 25 25 24 25 24 24 24 24 24 24 23 23 23 23 23 24 24 25 26 25 25 25 25 25 25 25 26 26 26 27 27 27 28 29 30 30
26 27 28 28 27 27 27 26 27 26 26 26 25 25 25 25 25 25 26 26 26 26 26 27 27 28 27 27 28 28 28 28 29 29 29 28 29 30 30 31 32 32 33
27 28 28 28 28 28 28 28 27 27 27 27 26 26 26 27 27 27 28 29 29 28 28 29 30 30 30 30 31 31 31 32 32 32 32 33 33 34 34 35 35 36 37
27 27 28 28 28 28 28 28 28 28 29 29 28 28 28 28 29 30 30 31 31 31 31 31 32 33 33 33 33 34 34 34 35 35 36 37 37 38 38 38 38 39 40
23 25 26 28 28 28 28 29 29 29 30 29 29 29 29 30 31 31 33 32 33 33 34 34 34 34 34 35 36 37 37 37 38 38 39 40 41 41 42 42 42 43 43
24 23 25 26 27 28 29 29 30 29 30 30 30 30 30 31 31 32 33 34 34 35 35 36 37 38 37 37 38 39 40 40 41 42 42 43 44 44 44 45 45 45 46
25 25 24 24 26 27 29 30 29 29 29 30 30 30 31 31 33 34 35 36 36 37 37 38 38 40 40 40 41 42 42 43 43 44 45 45 45 46 47 48 48 48 49
24 24 24 24 25 26 27 29 30 29 30 31 31 31 32 34 35 35 36 36 37 38 39 40 40 41 42 42 43 44 45 46 46 47 47 48 49 49 50 51 51 51 51
26 25 25 24 25 25 26 27 28 29 30 30 31 32 34 35 35 36 36 37 38 38 39 40 41 42 44 44 46 47 47 48 49 50 50 51 52 53 53 53 53 53 53
27 26 26 26 26 26 27 28 29 29 30 30 31 32 33 34 34 36 37 38 39 39 40 42 43 45 46 47 48 48 49 50 51 52 53 53 54 54 54 54 54 55 55
27 27 27 28 29 28 28 29 30 30 30 31 32 33 34 36 36 37 37 38 40 40 41 43 45 46 47 48 49 50 51 51 52 53 54 55 55 55 55 55 55 56 56
28 28 28 29 29 29 30 30 31 32 32 33 34 35 35 36 36 36 38 40 42 43 43 45 46 47 48 49 50 51 52 53 54 54 55 55 55 55 55 55 55 55 55
28 28 28 28 29 30 31 32 32 32 33 33 34 35 35 35 35 36 38 40 42 44 45 46 46 47 49 49 50 51 51 52 52 52 52 52 52 52 52 52 53 53 53
29 28 29 28 29 30 30 31 31 31 33 33 33 34 34 35 36 37 39 40 42 44 45 45 46 47 48 49 49 50 50 49 49 49 49 49 49 49 49 49 50 49 49
28 29 29 29 29 30 30 30 31 31 32 32 33 33 35 36 37 38 39 40 42 43 44 45 45 46 47 47 47 47 47 46 46 46 46 46 46 46 46 46 45 45 45
29 29 29 30 30 30 30 30 32 33 33 34 34 35 36 37 37 38 39 40 41 42 43 44 44 44 44 44 44 43 43 43 43 42 42 42 41 41 41 41 41 41 41
28 29 29 29 29 30 30 31 32 32 33 34 35 35 36 36 37 38 39 40 40 41 42 42 41 40 40 40 40 39 39 39 38 37 36 36 36 36 36 36 36 36 36
29 29 29 29 29 29 30 30 31 32 32 33 33 34 34 35 36 37 37 38 38 38 38 37 36 36 36 35 35 34 34 34 33 33 32 32 32 32 32 31 31 31 31
26 27 27 27 27 28 29 29 30 31 32 32 32 32 33 34 34 34 34 34 33 33 32 32 31 31 31 30 30 31 30 30 29 28 28 28 28 28 28 27 27 28 28
24 25 25 25 26 27 28 29 29 30 30 30 31 31 31 31 31 30 30 30 29 29 28 28 28 27 27 27 28 28 27 26 26 26 25 25 25 25 24 24 25 25 25
22 23 24 25 25 26 27 27 28 28 28 28 29 28 28 28 28 28 28 27 27 26 26 25 25 25 25 25 25 25 24 23 23 22 22 22 22 22 22 22 22 22 23
20 20 21 22 23 24 25 25 25 26 26 26 26 26 26 26 26 26 26 25 24 24 23 23 23 22 22 22 22 21 21 20 20 20 20 20 20 20 20 20 20 21 21
18 18 19 20 21 21 22 22 23 24 24 24 24 23 23 23 23 23 23 22 22 21 21 21 20 20 19 19 19 19 19 18 18 18 18 18 18 18 18 18 18 19 20
17 17 18 18 19 19 20 21 21 21 21 21 20 21 21 21 21 21 21 20 20 19 19 18 17 18 18 18 18 18 17 16 16 16 16 16 16 16 15 15 16 17 18
Wind_Direction
256 256 257 256 255 255 255 254 254 253 252 252 254 256 258 262 263 265 267 269 271 274 278 281 284 285 286 286 287 287 286 284 282 280 279 278 276 275 273 274 273 274 273
255 257 256 257 255 254 253 253 252 250 251 252 255 257 260 263 266 268 268 269 272 275 278 281 282 283 283 284 285 286 285 285 285 283 281 279 278 276 274 273 274 274 274
252 254 258 258 253 251 252 252 249 248 250 253 255 258 261 264 266 267 268 269 270 273 276 279 281 282 281 282 285 285 284 283 283 282 282 280 278 278 276 276 277 276 274
255 256 256 256 253 251 252 252 247 250 253 254 254 256 259 262 265 267 270 271 272 272 275 278 281 283 282 282 284 284 284 283 282 281 281 280 279 279 279 278 278 276 275
256 254 255 254 253 253 253 253 250 250 253 254 254 256 259 261 264 268 272 272 273 274 275 277 280 281 280 282 283 283 282 282 281 280 280 280 280 280 279 279 278 278 277
255 258 257 255 255 256 255 253 251 252 254 253 254 256 259 261 264 267 270 272 274 276 276 277 278 278 280 282 283 283 282 281 282 281 281 281 280 280 280 280 279 279 278
261 261 257 256 257 257 257 255 254 254 255 255 256 258 260 262 265 269 271 273 274 275 277 277 278 279 281 282 284 284 284 283 283 283 283 282 282 282 282 282 281 281 280
269 269 265 262 259 259 258 257 256 256 256 256 258 260 263 264 266 268 271 273 273 275 277 278 279 280 282 284 285 285 285 285 285 284 284 283 283 282 282 282 282 281 280
274 272 266 263 261 259 256 254 256 258 257 259 260 262 262 264 267 268 272 274 275 276 277 278 280 282 283 284 285 286 286 286 286 286 285 286 285 284 283 283 282 281 280
275 275 268 264 263 260 257 253 254 257 260 261 262 262 263 265 268 269 271 273 275 278 278 279 281 283 284 286 287 287 287 287 287 286 287 287 287 286 285 284 283 283 282
274 273 271 270 266 262 259 257 257 258 261 263 263 264 267 268 270 270 271 272 275 277 279 282 283 284 285 286 287 288 288 288 287 287 287 288 288 287 287 286 285 284 283
272 270 267 268 265 262 260 259 260 262 263 264 265 267 268 268 270 272 274 275 276 277 279 282 284 285 287 287 287 288 288 289 289 289 289 289 289 288 287 287 286 284 283
271 268 265 264 262 261 260 261 262 264 265 266 268 270 270 271 272 274 276 277 279 280 281 283 285 286 287 288 288 289 289 290 290 290 290 290 290 289 289 288 287 286 284
267 265 264 262 262 262 261 264 268 267 267 269 269 270 271 272 274 276 278 279 281 282 283 285 286 288 288 289 290 291 292 292 292 292 292 292 291 291 290 289 288 287 286
264 263 263 264 264 263 265 268 270 269 269 271 271 271 272 274 277 278 280 282 283 285 286 287 289 290 291 292 293 293 293 294 294 293 293 293 292 292 291 290 289 288 287
266 265 266 266 266 266 268 270 270 270 270 271 273 275 277 279 281 282 283 284 285 287 289 290 291 292 293 294 295 295 295 294 294 294 294 293 293 293 292 291 291 290 289
268 267 267 268 268 269 271 272 273 274 276 277 279 279 280 282 283 283 285 286 288 289 291 292 293 294 294 294 295 295 295 295 295 295 295 294 294 294 293 293 292 291 291
266 268 269 269 270 271 272 274 275 277 279 281 283 283 284 285 285 286 287 289 290 291 292 293 293 293 294 294 295 295 296 296 297 297 297 296 296 296 296 296 295 294 293
267 268 269 271 273 273 274 277 279 280 282 283 284 285 285 286 286 287 289 289 290 291 292 292 293 294 295 295 297 298 298 299 299 299 299 299 300 300 300 300 299 298 297
266 268 271 272 273 274 276 279 281 281 282 284 284 284 285 287 287 288 289 290 290 291 292 293 294 295 296 298 298 299 300 301 302 302 302 303 303 303 304 304 304 303 303
267 267 268 270 273 275 277 279 280 282 283 284 285 287 287 288 288 290 291 291 292 293 294 295 296 298 299 299 300 303 304 304 304 306 306 307 307 307 307 308 308 309 309
271 271 273 275 277 278 279 280 282 283 284 286 287 287 287 288 290 291 292 292 293 294 295 296 297 299 300 302 304 306 307 307 308 308 309 310 311 311 311 311 313 314 315
275 276 277 276 278 279 281 283 285 286 286 286 287 287 288 289 290 291 291 292 292 293 295 297 298 300 302 304 306 309 310 310 312 313 314 315 316 317 317 319 320 322 323
276 280 279 278 280 282 283 284 286 286 287 288 288 289 290 291 291 291 292 292 293 295 295 296 298 301 303 306 308 311 312 313 315 316 317 318 320 321 324 326 328 330 330
283 284 283 282 282 284 285 287 287 288 288 288 289 289 291 291 292 292 291 292 293 294 295 297 299 302 305 308 310 313 315 315 317 317 319 321 324 327 329 331 334 336 337
285 285 284 283 284 286 289 290 291 292 292 292 292 292 293 293 293 293 293 292 293 294 295 297 300 303 306 310 312 314 316 316 317 318 320 323 327 330 333 335 339 341 343
Height
5858 5859 5859 5859 5861 5862 5864 5866 5867 5868 5869 5870 5872 5872 5873 5874 5875 5876 5876 5877 5877 5877 5878 5878 5878 5877 5877 5877 5876 5876 5875 5875 5875 5874 5874 5874 5873 5873 5873 5873 5873 5873 5873
5852 5853 5852 5853 5856 5858 5859 5859 5861 5863 5864 5866 5868 5868 5869 5870 5871 5871 5872 5872 5873 5873 5873 5873 5873 5873 5872 5872 5872 5871 5871 5870 5870 5869 5869 5868 5868 5868 5868 5868 5868 5867 5867
5845 5847 5849 5850 5851 5853 5854 5854 5856 5858 5860 5861 5863 5864 5865 5865 5866 5866 5867 5868 5869 5868 5868 5868 5868 5867 5867 5867 5866 5866 5866 5865 5864 5864 5863 5863 5862 5862 5862 5861 5861 5861 5860
5839 5841 5844 5845 5846 5848 5849 5851 5852 5854 5855 5857 5858 5859 5860 5860 5861 5861 5861 5862 5863 5863 5863 5862 5862 5861 5861 5861 5861 5860 5860 5859 5858 5858 5857 5856 5856 5855 5855 5854 5854 5853 5853
5834 5835 5837 5839 5841 5842 5844 5845 5847 5848 5850 5852 5853 5854 5855 5855 5856 5856 5856 5856 5856 5857 5857 5856 5856 5855 5855 5855 5854 5853 5853 5852 5851 5851 5850 5849 5848 5848 5847 5846 5846 5845 5844
5828 5829 5831 5833 5835 5836 5838 5840 5842 5843 5844 5846 5847 5849 5849 5850 5851 5851 5851 5850 5850 5850 5851 5850 5849 5849 5849 5848 5847 5846 5845 5844 5844 5843 5842 5841 5840 5839 5839 5838 5837 5836 5835
5823 5823 5825 5827 5828 5830 5832 5834 5836 5837 5838 5840 5841 5842 5843 5843 5844 5844 5844 5845 5844 5844 5844 5843 5842 5841 5841 5841 5839 5838 5837 5836 5835 5835 5834 5832 5831 5830 5829 5828 5827 5826 5825
5819 5819 5820 5821 5822 5824 5826 5828 5830 5832 5833 5834 5835 5836 5837 5838 5837 5837 5837 5837 5837 5836 5836 5835 5834 5834 5834 5833 5831 5829 5828 5827 5826 5825 5824 5823 5821 5820 5819 5817 5816 5815 5813
5814 5815 5815 5816 5817 5818 5820 5822 5824 5826 5827 5828 5829 5830 5830 5830 5831 5831 5830 5830 5830 5829 5829 5828 5827 5825 5825 5824 5823 5821 5819 5818 5816 5815 5813 5812 5810 5809 5807 5806 5804 5803 5801
5809 5810 5810 5811 5812 5813 5814 5816 5818 5819 5821 5821 5822 5822 5823 5823 5824 5824 5824 5823 5822 5822 5821 5820 5819 5817 5816 5815 5813 5811 5809 5808 5806 5804 5802 5801 5799 5797 5795 5793 5791 5790 5788
5804 5804 5805 5806 5807 5808 5809 5810 5811 5813 5814 5814 5815 5816 5816 5816 5816 5816 5816 5815 5815 5814 5812 5811 5810 5808 5807 5806 5803 5801 5799 5797 5795 5793 5791 5788 5786 5784 5782 5780 5778 5776 5774
5798 5799 5800 5801 5801 5802 5803 5805 5805 5806 5807 5807 5808 5808 5808 5808 5808 5807 5807 5806 5806 5806 5804 5803 5801 5799 5797 5795 5793 5790 5788 5786 5783 5781 5778 5776 5773 5770 5768 5765 5763 5761 5759
5793 5793 5794 5795 5795 5797 5798 5799 5799 5800 5800 5800 5800 5801 5801 5801 5800 5799 5799 5798 5797 5796 5795 5794 5792 5789 5787 5785 5782 5779 5777 5774 5771 5768 5765 5762 5759 5756 5753 5751 5748 5746 5743
5787 5787 5788 5788 5789 5790 5791 5792 5792 5793 5793 5793 5793 5793 5793 5792 5792 5791 5790 5789 5788 5787 5786 5784 5782 5779 5776 5774 5771 5768 5765 5762 5759 5755 5752 5749 5745 5742 5739 5736 5733 5730 5728
5780 5781 5782 5782 5783 5783 5784 5785 5785 5786 5786 5786 5786 5785 5784 5784 5783 5782 5781 5780 5779 5776 5776 5774 5771 5768 5765 5762 5759 5756 5753 5749 5746 5742 5739 5735 5732 5728 5725 5722 5718 5715 5712
5774 5774 5775 5775 5776 5777 5777 5777 5778 5778 5778 5778 5777 5777 5776 5775 5774 5774 5772 5771 5768 5766 5764 5763 5760 5757 5754 5751 5747 5744 5740 5737 5733 5729 5726 5722 5719 5715 5711 5708 5704 5701 5698
5767 5768 5768 5769 5769 5770 5770 5770 5771 5771 5770 5770 5769 5768 5768 5767 5766 5764 5763 5761 5759 5756 5754 5752 5750 5746 5743 5740 5736 5732 5729 5725 5721 5717 5714 5710 5706 5703 5699 5695 5691 5687 5684
5760 5760 5761 5761 5762 5762 5763 5763 5763 5763 5762 5761 5761 5760 5759 5758 5756 5755 5753 5751 5749 5747 5744 5742 5739 5736 5732 5729 5725 5721 5718 5714 5711 5707 5702 5699 5695 5691 5687 5683 5679 5676 5672
5753 5753 5754 5754 5755 5755 5756 5755 5755 5755 5754 5753 5752 5751 5750 5748 5747 5745 5744 5742 5739 5737 5734 5731 5728 5725 5722 5719 5715 5712 5708 5704 5700 5697 5693 5689 5685 5681 5677 5673 5669 5665 5662
5746 5746 5747 5747 5748 5748 5748 5748 5747 5747 5746 5744 5743 5742 5741 5739 5738 5736 5734 5732 5729 5727 5724 5722 5719 5716 5713 5710 5707 5703 5699 5695 5692 5688 5685 5681 5677 5673 5669 5665 5661 5657 5653
5738 5739 5739 5740 5740 5740 5740 5740 5739 5738 5737 5736 5735 5733 5732 5730 5728 5726 5724 5722 5720 5718 5715 5713 5710 5707 5705 5702 5699 5695 5692 5688 5684 5681 5677 5674 5670 5666 5662 5658 5655 5651 5647
5731 5732 5732 5733 5733 5733 5732 5732 5731 5730 5729 5728 5726 5725 5723 5721 5720 5718 5716 5714 5712 5710 5708 5705 5703 5700 5698 5695 5692 5688 5685 5682 5678 5675 5672 5668 5664 5661 5657 5653 5649 5645 5641
5725 5725 5725 5726 5726 5725 5725 5724 5723 5722 5721 5720 5718 5717 5715 5714 5712 5710 5708 5707 5705 5702 5701 5699 5696 5694 5691 5688 5686 5682 5679 5676 5673 5669 5666 5663 5659 5656 5652 5649 5645 5641 5637
5719 5719 5719 5719 5719 5719 5718 5717 5716 5715 5714 5712 5711 5710 5708 5706 5705 5703 5701 5699 5698 5696 5694 5692 5690 5688 5685 5683 5680 5678 5674 5671 5668 5665 5662 5659 5656 5652 5649 5645 5641 5638 5634
5714 5714 5713 5713 5713 5712 5712 5711 5710 5708 5707 5706 5705 5703 5701 5700 5698 5696 5695 5693 5691 5690 5688 5686 5684 5682 5680 5678 5675 5673 5670 5667 5665 5662 5659 5656 5653 5649 5646 5643 5639 5636 5632
5709 5709 5708 5708 5707 5707 5706 5705 5704 5702 5701 5700 5699 5697 5695 5694 5692 5690 5689 5687 5686 5684 5683 5681 5679 5677 5675 5673 5671 5669 5666 5664 5661 5659 5656 5653 5650 5647 5644 5641 5638 5634 5630